FW9406 Weather Reports


Display with metric or nautical units.
time (UTC)temp
F
wind
direction
speed
MPH
gust
MPH
rain 1hr
in
rain 24hr
in
rain mn
in
humidity
%
barometer
mb
20260506090911 60 197 0.0 0.0 0.00 0.00 0.00 95 1015.9
20260506090409 60 197 0.0 0.0 0.00 0.00 0.00 95 1015.9
20260506085905 60 221 0.0 0.0 0.00 0.00 0.00 94 1016.2
20260506085402 60 221 0.0 0.0 0.00 0.00 0.00 94 1016.2
20260506084858 60 210 0.0 0.0 0.00 0.00 0.00 94 1016.2
20260506084355 60 208 0.0 0.0 0.00 0.00 0.00 93 1016.2
20260506083852 60 194 0.0 0.0 0.00 0.00 0.00 93 1016.6
20260506083349 60 205 0.0 0.0 0.00 0.00 0.00 93 1016.6
20260506082846 60 229 0.0 0.0 0.00 0.00 0.00 93 1016.6
20260506082343 60 212 0.0 0.0 0.00 0.00 0.00 93 1016.6
20260506081839 60 211 0.0 0.0 0.00 0.00 0.00 92 1016.6
20260506081338 60 210 0.0 0.0 0.00 0.00 0.00 92 1016.6
20260506080835 60 211 0.0 0.0 0.00 0.00 0.00 92 1016.6
20260506080331 61 194 0.0 0.0 0.00 0.00 0.00 91 1016.6
20260506073315 61 221 0.0 0.0 0.00 0.00 0.00 89 1016.2
20260506072812 61 190 0.0 1.0 0.00 0.00 0.00 89 1015.9
20260506072310 61 209 0.0 0.0 0.00 0.00 0.00 89 1015.9
20260506071807 61 208 0.0 0.0 0.00 0.00 0.00 89 1016.2
20260506071305 61 211 0.0 0.0 0.00 0.00 0.00 88 1015.9
20260506070802 62 191 0.0 0.0 0.00 0.00 0.00 88 1016.2
20260506070259 62 233 0.0 0.0 0.00 0.00 0.00 87 1015.9
20260506062236 64 121 2.0 3.0 0.00 0.00 0.00 83 1016.2
20260506061731 64 275 1.0 1.0 0.00 0.00 0.00 82 1015.6
20260506061229 63 237 0.0 0.0 0.00 0.00 0.00 83 1015.6
20260506060728 63 218 0.0 0.0 0.00 0.00 0.00 83 1015.9
20260506060224 62 216 0.0 0.0 0.00 0.00 0.00 84 1015.9
20260506051156 62 235 0.0 0.0 0.00 0.00 0.00 80 1016.6
20260506050152 63 200 0.0 0.0 0.00 0.00 0.00 79 1016.2
20260506044643 62 214 0.0 0.0 0.00 0.00 0.00 82 1016.2
20260506044139 62 202 0.0 1.0 0.00 0.00 0.00 83 1016.2
20260506043636 62 214 0.0 0.0 0.00 0.00 0.00 85 1016.2
20260506043134 62 218 0.0 0.0 0.00 0.00 0.00 86 1016.6
20260506042633 62 167 0.0 0.0 0.00 0.00 0.00 85 1016.6
20260506042131 61 215 0.0 0.0 0.00 0.00 0.00 85 1016.9
20260506041629 62 215 0.0 0.0 0.00 0.00 0.00 84 1016.6
20260506041125 62 215 0.0 0.0 0.00 0.00 0.00 84 1016.6
20260506040623 62 183 0.0 0.0 0.00 0.00 0.00 83 1016.6
20260506040120 62 230 0.0 0.0 0.00 0.00 0.00 83 1016.6
20260506035617 62 230 0.0 0.0 0.00 0.00 0.00 81 1016.6
20260506035113 62 228 0.0 0.0 0.00 0.00 0.00 80 1016.6
20260506034611 62 203 0.0 0.0 0.00 0.00 0.00 79 1016.2
20260506034108 62 203 0.0 0.0 0.00 0.00 0.00 79 1016.2
20260506033605 63 149 0.0 0.0 0.00 0.00 0.00 79 1016.6
20260506033102 62 199 0.0 0.0 0.00 0.00 0.00 80 1016.2
20260506032559 62 211 0.0 0.0 0.00 0.00 0.00 79 1016.6
20260506032056 63 203 0.0 0.0 0.00 0.00 0.00 77 1016.6
20260506031553 63 203 0.0 0.0 0.00 0.00 0.00 77 1016.2
20260506031050 63 177 0.0 0.0 0.00 0.00 0.00 76 1016.2
20260506030548 64 168 0.0 0.0 0.00 0.00 0.00 75 1016.6
20260506030045 64 182 0.0 0.0 0.00 0.00 0.00 75 1016.6
20260506025542 64 188 0.0 0.0 0.00 0.00 0.00 74 1016.6
20260506025038 64 211 0.0 0.0 0.00 0.00 0.00 74 1016.9
20260506024535 64 211 0.0 0.0 0.00 0.00 0.00 74 1016.6
20260506024031 65 211 0.0 0.0 0.00 0.00 0.00 72 1016.6
20260506023528 66 207 0.0 0.0 0.00 0.00 0.00 71 1016.6
20260506023026 65 221 0.0 0.0 0.00 0.00 0.00 70 1016.6
20260506022523 66 222 0.0 0.0 0.00 0.00 0.00 70 1016.6
20260506022020 66 218 0.0 0.0 0.00 0.00 0.00 69 1016.6
20260506021518 67 192 0.0 0.0 0.00 0.00 0.00 68 1016.2
20260506021015 67 185 0.0 0.0 0.00 0.00 0.00 67 1016.2
20260506020512 67 183 0.0 0.0 0.00 0.00 0.00 68 1016.2
20260506020010 67 203 0.0 0.0 0.00 0.00 0.00 67 1016.2
20260506015507 68 201 0.0 0.0 0.00 0.00 0.00 66 1016.6
20260506015004 68 198 0.0 0.0 0.00 0.00 0.00 66 1016.2
20260506014501 69 207 0.0 0.0 0.00 0.00 0.00 64 1016.2
20260506013957 69 198 0.0 0.0 0.00 0.00 0.00 62 1016.2
20260506013455 69 198 0.0 0.0 0.00 0.00 0.00 60 1016.2
20260506012950 70 198 0.0 0.0 0.00 0.00 0.00 58 1016.2
20260506012447 71 189 0.0 0.0 0.00 0.00 0.00 57 1016.2
20260506011944 71 185 0.0 0.0 0.00 0.00 0.00 56 1016.2
20260506011442 71 184 0.0 0.0 0.00 0.00 0.00 55 1016.6
20260506010938 72 219 0.0 0.0 0.00 0.00 0.00 54 1016.2
20260506010437 72 221 0.0 0.0 0.00 0.00 0.00 53 1016.6
20260506005933 73 203 0.0 1.0 0.00 0.00 0.00 52 1016.6
20260506005431 74 236 0.0 1.0 0.00 0.00 0.00 50 1016.6
20260506004926 74 214 2.0 3.0 0.00 0.00 0.00 49 1016.6
20260506004425 74 238 1.0 2.0 0.00 0.00 0.00 49 1016.2
20260506003920 75 183 2.0 3.0 0.00 0.00 0.00 48 1015.9
20260506003417 75 224 0.0 1.0 0.00 0.00 0.00 48 1015.9
20260506002913 75 179 0.0 2.0 0.00 0.00 0.00 47 1015.9
20260506002409 76 240 1.0 2.0 0.00 0.00 0.00 46 1015.9
20260506001905 76 236 2.0 3.0 0.00 0.00 0.00 45 1015.9
20260506001402 77 228 1.0 4.0 0.00 0.00 0.00 45 1015.9
20260506000859 77 192 0.0 3.0 0.00 0.00 0.00 44 1015.6
20260506000357 77 219 2.0 2.0 0.00 0.00 0.00 43 1015.6
20260505235853 77 250 2.0 4.0 0.00 0.00 0.00 42 1015.6
20260505235351 78 242 2.0 6.0 0.00 0.00 0.00 41 1015.6
20260505234848 78 242 2.0 4.0 0.00 0.00 0.00 41 1015.6
20260505234346 78 249 2.0 6.0 0.00 0.00 0.00 40 1015.6
20260505233842 79 249 2.0 4.0 0.00 0.00 0.00 39 1015.6
20260505233340 79 249 1.0 4.0 0.00 0.00 0.00 40 1015.6
20260505232837 79 239 5.0 6.0 0.00 0.00 0.00 39 1015.2
20260505232335 80 234 1.0 4.0 0.00 0.00 0.00 39 1015.6
20260505231831 80 245 3.0 6.0 0.00 0.00 0.00 39 1015.6
20260505231329 81 173 2.0 7.0 0.00 0.00 0.00 39 1015.2
20260505230827 82 242 2.0 6.0 0.00 0.00 0.00 40 1015.2
20260505230324 82 232 0.0 2.0 0.00 0.00 0.00 40 1015.2
20260505225821 81 245 0.0 4.0 0.00 0.00 0.00 40 1015.2
20260505225318 81 152 2.0 4.0 0.00 0.00 0.00 40 1015.2
20260505224813 81 16 2.0 7.0 0.00 0.00 0.00 39 1015.2
20260505224311 81 118 2.0 4.0 0.00 0.00 0.00 38 1015.2
20260505223808 82 220 1.0 3.0 0.00 0.00 0.00 38 1015.2
20260505223305 82 143 1.0 8.0 0.00 0.00 0.00 38 1015.2
20260505222800 82 165 1.0 7.0 0.00 0.00 0.00 38 1015.6
20260505222257 83 219 2.0 7.0 0.00 0.00 0.00 39 1015.2
20260505221754 82 107 3.0 3.0 0.00 0.00 0.00 41 1015.2
20260505221251 82 247 2.0 4.0 0.00 0.00 0.00 41 1015.6
20260505220748 82 212 3.0 7.0 0.00 0.00 0.00 42 1015.6
20260505220245 82 135 4.0 7.0 0.00 0.00 0.00 41 1015.2
20260505215743 83 156 3.0 3.0 0.00 0.00 0.00 41 1015.6
20260505215241 83 169 3.0 3.0 0.00 0.00 0.00 41 1015.2
20260505214738 83 249 1.0 6.0 0.00 0.00 0.00 40 1015.2
20260505214235 83 161 2.0 3.0 0.00 0.00 0.00 40 1015.6
20260505213733 82 240 2.0 4.0 0.00 0.00 0.00 42 1015.6
20260505213230 83 148 4.0 7.0 0.00 0.00 0.00 40 1015.6
20260505212726 82 71 1.0 6.0 0.00 0.00 0.00 42 1015.6
20260505212223 83 186 3.0 7.0 0.00 0.00 0.00 43 1015.9
20260505211720 82 157 4.0 8.0 0.00 0.00 0.00 42 1015.6
20260505211218 82 166 6.0 8.0 0.00 0.00 0.00 40 1015.6
20260505210714 83 136 3.0 6.0 0.00 0.00 0.00 40 1015.6
20260505210211 84 229 1.0 4.0 0.00 0.00 0.00 42 1015.6
20260505205708 83 228 1.0 3.0 0.00 0.00 0.00 41 1015.6
20260505205206 84 295 1.0 3.0 0.00 0.00 0.00 42 1015.6
20260505204702 83 234 2.0 9.0 0.00 0.00 0.00 42 1015.6
20260505204200 83 241 2.0 4.0 0.00 0.00 0.00 42 1015.6
20260505203657 83 239 4.0 6.0 0.00 0.00 0.00 40 1015.6
20260505203154 83 223 4.0 6.0 0.00 0.00 0.00 42 1016.2
20260505202649 82 167 3.0 7.0 0.00 0.00 0.00 42 1015.6
20260505202146 83 257 2.0 7.0 0.00 0.00 0.00 46 1015.9
20260505201643 82 253 4.0 9.0 0.00 0.00 0.00 43 1015.9
20260505201141 82 121 2.0 10.0 0.00 0.00 0.00 46 1016.2
20260505200638 82 120 7.0 11.0 0.00 0.00 0.00 43 1016.2
20260505200135 84 154 4.0 6.0 0.00 0.00 0.00 41 1016.2
20260505195631 82 188 4.0 9.0 0.00 0.00 0.00 44 1016.6
20260505195129 83 122 3.0 8.0 0.00 0.00 0.00 44 1016.6
20260505194626 82 169 4.0 8.0 0.00 0.00 0.00 45 1016.6
20260505194121 83 158 4.0 8.0 0.00 0.00 0.00 43 1016.6
20260505193618 82 201 5.0 11.0 0.00 0.00 0.00 44 1016.6
20260505193116 82 205 5.0 8.0 0.00 0.00 0.00 43 1016.6
20260505192614 81 196 5.0 10.0 0.00 0.00 0.00 44 1016.6
20260505192111 82 104 7.0 8.0 0.00 0.00 0.00 46 1016.6
20260505191610 82 174 0.0 3.0 0.00 0.00 0.00 47 1016.6
20260505191107 81 170 2.0 8.0 0.00 0.00 0.00 46 1016.9
20260505190602 83 169 3.0 7.0 0.00 0.00 0.00 44 1016.9
20260505190058 82 241 3.0 4.0 0.00 0.00 0.00 45 1016.9
20260505185555 83 60 1.0 6.0 0.00 0.00 0.00 48 1017.2
20260505185051 82 188 2.0 6.0 0.00 0.00 0.00 43 1017.2
20260505184548 82 184 3.0 7.0 0.00 0.00 0.00 44 1017.6
20260505184045 81 230 1.0 7.0 0.00 0.00 0.00 47 1017.6
20260505183541 80 187 2.0 6.0 0.00 0.00 0.00 48 1017.9
20260505183039 80 119 3.0 8.0 0.00 0.00 0.00 49 1017.6
20260505182535 80 225 4.0 8.0 0.00 0.00 0.00 47 1017.6
20260505182032 79 227 1.0 4.0 0.00 0.00 0.00 48 1017.9
20260505181528 81 114 5.0 7.0 0.00 0.00 0.00 43 1017.6
20260505181026 80 310 2.0 6.0 0.00 0.00 0.00 44 1017.9
20260505180521 81 132 4.0 8.0 0.00 0.00 0.00 45 1017.9
20260505180020 81 166 5.0 8.0 0.00 0.00 0.00 45 1017.9
20260505175514 81 249 2.0 4.0 0.00 0.00 0.00 45 1017.9
20260505175012 80 243 3.0 6.0 0.00 0.00 0.00 45 1017.9
20260505174508 81 230 4.0 6.0 0.00 0.00 0.00 46 1017.6
20260505174004 81 182 3.0 9.0 0.00 0.00 0.00 45 1017.6
20260505173500 81 196 4.0 8.0 0.00 0.00 0.00 45 1017.9
20260505172958 80 228 4.0 9.0 0.00 0.00 0.00 45 1018.3
20260505172457 80 200 2.0 10.0 0.00 0.00 0.00 46 1017.9
20260505171956 80 121 3.0 6.0 0.00 0.00 0.00 49 1018.3
20260505171453 80 169 6.0 8.0 0.00 0.00 0.00 49 1018.3
20260505170949 80 130 4.0 7.0 0.00 0.00 0.00 46 1018.3
20260505165942 80 254 4.0 6.0 0.00 0.00 0.00 48 1018.6
20260505165438 79 152 5.0 8.0 0.00 0.00 0.00 49 1018.3
20260505164933 78 205 6.0 13.0 0.00 0.00 0.00 51 1018.3
20260505164430 79 162 6.0 8.0 0.00 0.00 0.00 49 1018.3
20260505163928 79 141 2.0 8.0 0.00 0.00 0.00 52 1018.6
20260505163427 78 219 2.0 6.0 0.00 0.00 0.00 52 1018.3
20260505162926 77 146 4.0 7.0 0.00 0.00 0.00 51 1018.6
20260505162421 78 103 6.0 9.0 0.00 0.00 0.00 50 1018.6
20260505161918 78 203 0.0 3.0 0.00 0.00 0.00 51 1018.6
20260505161415 78 228 1.0 7.0 0.00 0.00 0.00 52 1018.6
20260505160912 78 249 3.0 8.0 0.00 0.00 0.00 52 1018.6
20260505160410 77 211 5.0 6.0 0.00 0.00 0.00 53 1018.6
20260505153349 75 317 2.0 6.0 0.00 0.00 0.00 59 1018.9
20260505152846 75 225 6.0 9.0 0.00 0.00 0.00 58 1018.9
20260505152344 75 215 1.0 7.0 0.00 0.00 0.00 60 1018.9
20260505151843 74 283 1.0 2.0 0.00 0.00 0.00 63 1018.9
20260505151340 73 183 4.0 7.0 0.00 0.00 0.00 63 1018.9
20260505150837 73 169 1.0 4.0 0.00 0.00 0.00 64 1018.6
20260505150335 73 98 2.0 8.0 0.00 0.00 0.00 65 1018.6
20260505140304 70 114 3.0 3.0 0.00 0.00 0.00 75 1018.6
20260505130228 63 138 3.0 4.0 0.00 0.00 0.00 86 1018.3
20260505124719 61 134 2.0 4.0 0.00 0.00 0.00 88 1018.3
20260505124215 61 190 2.0 3.0 0.00 0.00 0.00 88 1018.6
20260505123711 60 188 2.0 3.0 0.00 0.00 0.00 89 1018.3
20260505123208 60 191 2.0 3.0 0.00 0.00 0.00 91 1018.6
20260505122704 59 191 1.0 2.0 0.00 0.00 0.00 91 1018.3
20260505122202 59 146 1.0 1.0 0.00 0.00 0.00 90 1018.6
20260505121658 58 173 0.0 0.0 0.00 0.00 0.00 92 1018.3
20260505121155 57 143 1.0 1.0 0.00 0.00 0.00 94 1018.3
20260505120651 56 184 0.0 1.0 0.00 0.00 0.00 95 1018.3
20260505120147 56 149 0.0 1.0 0.00 0.00 0.00 96 1018.3
20260505115641 55 152 1.0 1.0 0.00 0.00 0.00 98 1017.9
20260505115139 54 216 0.0 0.0 0.00 0.00 0.00 99 1017.9
20260505114132 53 161 0.0 0.0 0.00 0.00 0.00 99 1017.9
20260505113629 52 194 0.0 0.0 0.00 0.00 0.00 99 1017.9
20260505113125 51 228 0.0 0.0 0.00 0.00 0.00 99 1017.6
20260505112621 51 228 0.0 0.0 0.00 0.00 0.00 99 1017.9
20260505112120 51 228 0.0 0.0 0.00 0.00 0.00 99 1017.9
20260505111619 51 228 0.0 0.0 0.00 0.00 0.00 99 1017.6
20260505111116 51 251 0.0 0.0 0.00 0.00 0.00 99 1017.9
20260505110109 50 203 0.0 0.0 0.00 0.00 0.00 99 1017.6
20260505102045 50 226 0.0 0.0 0.00 0.00 0.00 99 1017.2
20260505101543 51 227 0.0 0.0 0.00 0.00 0.00 99 1017.2
20260505101039 51 228 0.0 0.0 0.00 0.00 0.00 98 1017.2
20260505100536 51 228 0.0 0.0 0.00 0.00 0.00 98 1017.6
20260505100033 51 228 0.0 0.0 0.00 0.00 0.00 98 1017.2
20260505095529 51 237 0.0 0.0 0.00 0.00 0.00 98 1017.2
20260505095025 52 237 0.0 0.0 0.00 0.00 0.00 98 1017.2
20260505094522 51 241 0.0 0.0 0.00 0.00 0.00 97 1017.6
20260505094018 52 241 0.0 0.0 0.00 0.00 0.00 98 1017.2
20260505093515 52 260 0.0 0.0 0.00 0.00 0.00 98 1017.6
20260505093012 51 198 0.0 0.0 0.00 0.00 0.00 97 1017.6
20260505092510 51 226 0.0 0.0 0.00 0.00 0.00 97 1017.6
20260505092008 51 242 0.0 0.0 0.00 0.00 0.00 97 1017.6
20260505091505 52 218 0.0 0.0 0.00 0.00 0.00 97 1017.9